USA 169 (MILSTAR-2 4)

Last updated on Fri Dec 19 2025 00:02:48 GMT+0000 (Coordinated Universal Time)

1 27711U 03012A 25352.56724845 -.00000182 00000+0 00000+0 0 9992 2 27711 12.0743 31.2845 0095552 1.8279 50.6558 1.00271482 31146
UTC large
Height (km)
Speed (km/s)
/
Latitude / Longitude
Inclination (degrees)
Orbital Period (minutes)
Azimuth
Elevation
Range (km)
Doppler Factor

Next 0 passes for location: London (51.5072 / 0.1276)

Sorry there are no passes over London.